Find Starlink 32232

NORAD ID: 60431 Int'l Des: 2024-144 Owner: SPXS Country: US Constellation: starlink operational
LEOCIRCULAR

Live-Position

3D-Globus wird geladen...

Über Starlink 32232

Beschreibung wird geladen...

Nächste Überflüge

Passes for default location (London). Set your location on the main map for personalized predictions.

Höhenverlauf

Loading altitude history...

Zweizeiliger Elementsatz

1 60431U 24144G 26123.53609543 .00000504 00000-0 29138-4 0 9994
2 60431 53.1609 322.5736 0001131 87.6736 272.4394 15.30189875 97702
Epoch: 3. Mai 2026 • Age: 6 hours

Aktueller Status

Höhe 477.6 km
Geschwindigkeit 7.63 km/s
Subsatellitenpunkt -7.86°S, 167.36°E
Startdatum 12. Aug. 2024
Alter 1.7 years
Typ internet

Technische Details

Klassifizierung Payload
Masse 730.00 kg
Trockenmasse 700.00 kg
Gesamtmasse 730.00 kg
Länge 0.30 m
Durchmesser 4.10 m
Spannweite 29.00 m
Form Box + pan
Hersteller SPXS
Bus-Typ Starlink V2M
Phasenstatus In Orbit
Besitzer/Staat SPXS/US

Most Searched